Location: Geçitköy
(36.7327°N, 29.8010°E)
Time: 18:32:52
(UTC+00:00)

Cosmos 1850 Rocket - Pass Details

Date: 12 January 2026
Orbit: 749 x 781 km, 74.0° (Epoch: 10 February)

Event Time Altitude Azimuth Distance (km) Brightness Sun altitude
Rises 17:13:34 0° 339° (NNW) 3,256 7.4 -25.2°
Reaches altitude 10° 17:15:57 10° 337° (NNW) 2,329 6.6 -25.7°
Maximum altitude 17:21:13 68° 255° (WSW) 837 4.3 -26.7°
Drops below altitude 10° 17:26:28 10° 173° (S) 2,325 6.5 -27.8°
Sets 17:28:51 0° 171° (S) 3,250 7.2 -28.3°
